Pontiac, MI

2:52 PM EDT on July 27, 2017 (GMT -0400)
Oakland County International

Weather History for KPTK - January, 2013

Change the Weather History Date:

Saturday, January 19, 2013

  Actual Average Record
Temperature  
Mean Temperature 40 °F -  
Max Temperature 45 °F 25 °F 45 °F (2013)
Min Temperature 34 °F 12 °F -5 °F (1997)
Degree Days  
Heating Degree Days 26    
Moisture  
Dew Point 27 °F    
Average Humidity 59    
Maximum Humidity 68    
Minimum Humidity 52    
Precipitation  
Precipitation 0.00 in - - ()
Sea Level Pressure  
Sea Level Pressure 29.80 in    
Wind  
Wind Speed 13 mph (SW)    
Max Wind Speed 24 mph    
Max Gust Speed 33 mph    
Visibility 10 miles    
Events      
Averages and records for this station are not official NWS values.
T = Trace of Precipitation, MM = Missing Value Source: NWS Daily Summary

Daily Weather History Graph

Daily Weather History Graph

Search for Another Location

Airport or City:

Trip Planner

Search our weather history database for the weather conditions in past years. The results will help you decide how hot, cold, wet, or windy it might be!

Date:

Astronomy

Jan. 19, 2013 Rise Set
Actual Time 7:58 AM EST 5:30 PM EST
Civil Twilight 7:27 AM EST 6:01 PM EST
Nautical Twilight 6:53 AM EST 6:36 PM EST
Astronomical Twilight 6:19 AM EST 7:09 PM EST
Moon 11:57 AM EST (1/19) 1:30 AM EST (1/19)
Length of Visible Light 10h 33m
Length of Day
9h 31m
First Quarter, 57% of the Moon is Illuminated
Jan 19
First Quarter
Jan 26
Full
Feb 3
Last Quarter
Feb 10
New
Feb 17
First Quarter

Hourly Weather History & Observations

Time (EST) Temp. Windchill Dew Point Humidity Pressure Visibility Wind Dir Wind Speed Gust Speed Precip Events Conditions
12:53 AM 34.0 °F 23.8 °F 21.0 °F 59% 29.94 in 10.0 mi SSW 16.1 mph 20.7 mph N/A   Clear
1:53 AM 34.0 °F 26.0 °F 21.0 °F 59% 29.93 in 10.0 mi SSW 10.4 mph 21.9 mph N/A   Clear
2:53 AM 35.1 °F 25.5 °F 21.9 °F 59% 29.93 in 10.0 mi SSW 15.0 mph 20.7 mph N/A   Clear
3:53 AM 35.1 °F 26.9 °F 21.9 °F 59% 29.92 in 10.0 mi SW 11.5 mph - N/A   Clear
4:53 AM 36.0 °F 28.0 °F 23.0 °F 59% 29.91 in 10.0 mi SW 11.5 mph - N/A   Clear
5:53 AM 36.0 °F 28.5 °F 24.1 °F 62% 29.91 in 10.0 mi SSW 10.4 mph - N/A   Partly Cloudy
6:53 AM 36.0 °F 29.6 °F 25.0 °F 64% 29.91 in 10.0 mi SW 8.1 mph - N/A   Partly Cloudy
7:53 AM 37.9 °F 30.9 °F 26.1 °F 62% 29.91 in 10.0 mi SW 10.4 mph 17.3 mph N/A   Mostly Cloudy
8:53 AM 37.9 °F 30.0 °F 26.1 °F 62% 29.92 in 10.0 mi SW 12.7 mph 20.7 mph N/A   Mostly Cloudy
9:53 AM 39.0 °F 32.3 °F 27.0 °F 62% 29.93 in 10.0 mi SW 10.4 mph 21.9 mph N/A   Mostly Cloudy
10:53 AM 41.0 °F 36.4 °F 27.0 °F 57% 29.92 in 10.0 mi SW 6.9 mph - N/A   Mostly Cloudy
11:53 AM 42.1 °F 36.6 °F 27.0 °F 55% 29.87 in 10.0 mi SW 9.2 mph - N/A   Mostly Cloudy
12:53 PM 42.1 °F 35.7 °F 28.0 °F 58% 29.83 in 10.0 mi SW 11.5 mph 20.7 mph N/A   Mostly Cloudy
1:53 PM 44.1 °F 37.7 °F 28.0 °F 53% 29.79 in 10.0 mi SSW 12.7 mph 24.2 mph N/A   Mostly Cloudy
2:53 PM 45.0 °F 37.6 °F 28.0 °F 52% 29.75 in 10.0 mi SSW 17.3 mph 28.8 mph N/A   Overcast
3:53 PM 45.0 °F 38.9 °F 28.9 °F 53% 29.73 in 10.0 mi SSW 12.7 mph 20.7 mph N/A   Overcast
4:53 PM 45.0 °F 38.9 °F 28.9 °F 53% 29.72 in 10.0 mi SW 12.7 mph 21.9 mph N/A   Overcast
5:53 PM 44.1 °F 36.2 °F 30.0 °F 58% 29.69 in 10.0 mi SSW 18.4 mph 28.8 mph N/A   Overcast
6:53 PM 44.1 °F 37.1 °F 30.0 °F 58% 29.68 in 10.0 mi SSW 15.0 mph 19.6 mph N/A   Overcast
7:53 PM 43.0 °F 35.7 °F 30.9 °F 62% 29.66 in 10.0 mi SW 15.0 mph 28.8 mph N/A   Partly Cloudy
8:53 PM 43.0 °F 34.5 °F 30.9 °F 62% 29.62 in 10.0 mi SW 19.6 mph 28.8 mph N/A   Partly Cloudy
9:53 PM 43.0 °F 35.1 °F 32.0 °F 65% 29.60 in 10.0 mi SW 17.3 mph 24.2 mph N/A   Mostly Cloudy
10:53 PM 43.0 °F 35.7 °F 33.1 °F 68% 29.57 in 10.0 mi WSW 15.0 mph 28.8 mph N/A   Overcast
11:53 PM 42.8 °F 33.3 °F 32.0 °F 66% 29.53 in 10.0 mi WSW 24.2 mph 33.4 mph N/A   Overcast